Fort Pierre, SD

11:19 AM MST on February 07, 2016 (GMT -0700)
Pierre Regional

Weather History for KPIR - March, 2014

Change the Weather History Date:

Friday, March 28, 2014

  Actual Average Record
Temperature  
Mean Temperature 27 °F 39 °F  
Max Temperature 36 °F 51 °F 87 °F (1946)
Min Temperature 18 °F 28 °F 5 °F (1944)
Degree Days  
Heating Degree Days 38 26  
Month to date heating degree days 999 872  
Since 1 July heating degree days 6994 6370  
Cooling Degree Days 0 0  
Month to date cooling degree days 0 0  
Year to date cooling degree days 0 0  
Moisture  
Dew Point 12 °F    
Average Humidity 60    
Maximum Humidity 81    
Minimum Humidity 38    
Precipitation  
Precipitation 0.00 in 0.05 in 1.17 in (1905)
Month to date precipitation 0.34 1.06  
Year to date precipitation 0.91 2.07  
Snow  
Snow 0.00 in 0.20 in 5.00 in (1965)
Month to date snowfall 3.7 5.5  
Since 1 July snowfall 28.6 27.3  
Snow Depth 0.00 in    
Sea Level Pressure  
Sea Level Pressure 30.16 in    
Wind  
Wind Speed 7 mph (East)    
Max Wind Speed 15 mph    
Max Gust Speed 18 mph    
Visibility 10 miles    
Events      
T = Trace of Precipitation, MM = Missing Value Source: NWS Daily Summary

Daily Weather History Graph

Daily Weather History Graph

Search for Another Location

Airport or City:

Trip Planner

Search our weather history database for the weather conditions in past years. The results will help you decide how hot, cold, wet, or windy it might be!

Date:

Astronomy

Mar. 28, 2014 Rise Set
Actual Time 7:29 AM CDT 8:03 PM CDT
Civil Twilight 7:00 AM CDT 8:32 PM CDT
Nautical Twilight 6:25 AM CDT 9:07 PM CDT
Astronomical Twilight 5:50 AM CDT 9:43 PM CDT
Moon 6:06 AM CDT (3/28) 5:58 PM CDT (3/28)
Length of Visible Light 13h 32m
Length of Day
12h 34m
Waning Crescent, 6% of the Moon is Illuminated
Mar 28
Waning Crescent
Mar 30
New
Apr 7
First Quarter
Apr 15
Full
Apr 22
Last Quarter

Hourly Weather History & Observations

Time (CDT) Temp. Windchill Dew Point Humidity Pressure Visibility Wind Dir Wind Speed Gust Speed Precip Events Conditions
12:53 AM 25.0 °F 15.5 °F 15.1 °F 66% 29.99 in 10.0 mi ENE 9.2 mph - N/A   Clear
1:53 AM 21.9 °F 14.5 °F 12.0 °F 66% 30.02 in 10.0 mi East 5.8 mph - N/A   Clear
2:53 AM 19.9 °F 11.1 °F 12.9 °F 74% 30.03 in 10.0 mi East 6.9 mph - N/A   Clear
3:53 AM 19.0 °F 10.0 °F 12.0 °F 74% 30.04 in 10.0 mi ESE 6.9 mph - N/A   Clear
4:53 AM 19.9 °F 13.4 °F 12.9 °F 74% 30.04 in 10.0 mi ESE 4.6 mph - N/A   Overcast
5:53 AM 19.9 °F 10.1 °F 12.9 °F 74% 30.04 in 10.0 mi East 8.1 mph - N/A   Overcast
6:53 AM 19.9 °F 6.2 °F 12.0 °F 71% 30.04 in 10.0 mi ENE 15.0 mph - N/A   Overcast
7:53 AM 19.9 °F 7.9 °F 10.9 °F 68% 30.08 in 10.0 mi East 11.5 mph - N/A   Overcast
8:53 AM 19.9 °F 7.9 °F 10.0 °F 65% 30.12 in 10.0 mi East 11.5 mph - N/A   Overcast
9:53 AM 21.9 °F 11.0 °F 10.0 °F 60% 30.13 in 10.0 mi ENE 10.4 mph - N/A   Overcast
10:53 AM 23.0 °F 13.9 °F 10.0 °F 58% 30.17 in 10.0 mi East 8.1 mph - N/A   Overcast
11:53 AM 25.0 °F 18.1 °F 10.0 °F 53% 30.19 in 10.0 mi East 5.8 mph - N/A   Overcast
12:53 PM 27.0 °F 19.5 °F 9.0 °F 47% 30.20 in 10.0 mi ENE 6.9 mph - N/A   Overcast
1:53 PM 28.9 °F 22.8 °F 10.0 °F 45% 30.21 in 10.0 mi Variable 5.8 mph - N/A   Overcast
2:53 PM 30.9 °F 25.2 °F 10.0 °F 42% 30.22 in 10.0 mi North 5.8 mph - N/A   Overcast
3:53 PM 33.1 °F 30.0 °F 10.0 °F 38% 30.22 in 10.0 mi Variable 3.5 mph - N/A   Partly Cloudy
4:53 PM 35.1 °F 28.6 °F 12.0 °F 39% 30.22 in 10.0 mi NE 8.1 mph - N/A   Clear
5:53 PM 34.0 °F 29.8 °F 12.9 °F 42% 30.22 in 10.0 mi East 4.6 mph - N/A   Clear
6:53 PM 34.0 °F 28.8 °F 12.9 °F 42% 30.24 in 10.0 mi ESE 5.8 mph - N/A   Clear
7:53 PM 30.9 °F 27.5 °F 12.0 °F 46% 30.25 in 10.0 mi SSE 3.5 mph - N/A   Clear
8:53 PM 28.0 °F 22.8 °F 12.9 °F 53% 30.26 in 10.0 mi ESE 4.6 mph - N/A   Clear
9:53 PM 25.0 °F 17.1 °F 15.1 °F 66% 30.27 in 10.0 mi South 6.9 mph - N/A   Clear
10:53 PM 25.0 °F 19.3 °F 18.0 °F 75% 30.27 in 10.0 mi South 4.6 mph - N/A   Clear
11:53 PM 25.0 °F 18.1 °F 19.0 °F 78% 30.26 in 10.0 mi SSW 5.8 mph - N/A   Clear